Location: Moscow
(55.7500°N, 37.5830°E)
Time: 20:58:03
(UTC+03:00)

ISS - Pass Details

Date: 19 May 2021
Orbit: 417 x 422 km, 51.6° (Epoch: 16 June)

Event Time Altitude Azimuth Distance (km) Brightness Sun altitude
Rises 21:33:18 0° 240° (WSW) 2,361 0.2 -6.0°
Reaches altitude 10° 21:35:31 10° 230° (SW) 1,500 -0.9 -6.2°
Maximum altitude 21:38:34 32° 165° (SSE) 738 -3.0 -6.4°
Drops below altitude 10° 21:41:38 10° 100° (E) 1,506 -1.4 -6.7°
Sets 21:43:51 0° 90° (E) 2,373 -0.3 -6.9°
